This is the latest recevied weather packets stored in our database for station/object WB4ZUT. If no packets are shown the sender has not sent any weather packets the latest 10 day(s).
| Time | Temp. | Humidity | Pressure | Rain* | Wind** | Luminosity | Snow |
|---|---|---|---|---|---|---|---|
| 1778164227 | 15° C | 46% | 1017.5 hPa | 0 mm | - | 552 W/m² | - |
| 1778163921 | 15.56° C | 46% | 1017.6 hPa | 0 mm | - | 528 W/m² | - |
| 1778163619 | 15.56° C | 51% | 1017.6 hPa | 0 mm | - | 542 W/m² | - |
| 1778163315 | 15.56° C | 46% | 1017.7 hPa | 0 mm | - | 489 W/m² | - |
| 1778163012 | 15° C | 49% | 1017.3 hPa | 0 mm | - | 482 W/m² | - |
| 1778162708 | 14.44° C | 50% | 1017.4 hPa | 0 mm | - | 436 W/m² | - |
| 1778162401 | 14.44° C | 52% | 1017.5 hPa | 0 mm | - | 387 W/m² | - |
| 1778162097 | 14.44° C | 53% | 1017.5 hPa | 0 mm | - | 393 W/m² | - |
| 1778161794 | 14.44° C | 55% | 1017.6 hPa | 0 mm | - | 369 W/m² | - |
| 1778161490 | 13.89° C | 54% | 1017.4 hPa | 0 mm | - | 352 W/m² | - |
| 1778161187 | 13.33° C | 58% | 1017.3 hPa | 0 mm | - | 324 W/m² | - |
| 1778160883 | 12.78° C | 61% | 1017.2 hPa | 0 mm | - | 310 W/m² | - |
| 1778160582 | 12.78° C | 60% | 1017.4 hPa | 0 mm | - | 288 W/m² | - |
| 1778160277 | 12.78° C | 60% | 1017.3 hPa | 0 mm | - | 275 W/m² | - |
| 1778159973 | 13.33° C | 61% | 1017.3 hPa | 0 mm | - | 271 W/m² | - |
| 1778159671 | 12.78° C | 65% | 1017.5 hPa | 0 mm | - | 253 W/m² | - |
| 1778159368 | 12.22° C | 64% | 1017.1 hPa | 0 mm | - | 233 W/m² | - |
| 1778159065 | 12.22° C | 67% | 1017.3 hPa | 0 mm | - | 215 W/m² | - |
| 1778158764 | 11.67° C | 68% | 1017.4 hPa | 0 mm | - | 200 W/m² | - |
| 1778158461 | 11.67° C | 68% | 1017.2 hPa | 0 mm | - | 182 W/m² | - |
| 1778158159 | 11.67° C | 68% | 1017 hPa | 0 mm | - | 166 W/m² | - |
| 1778157854 | 11.11° C | 67% | 1017.3 hPa | 0 mm | - | 145 W/m² | - |
| 1778157553 | 11.11° C | 66% | 1017.2 hPa | 0 mm | - | 142 W/m² | - |
| 1778157250 | 11.11° C | 68% | 1017.2 hPa | 0 mm | - | 122 W/m² | - |
| 1778156946 | 10.56° C | 71% | 1017.2 hPa | 0 mm | - | 88 W/m² | - |
* Rain latest hour (hover to see other rain measurements)
** Current wind speed in m/s (hover to see current wind gust speed)